Regional Weather Roundup
Issued by NWS Charleston, WV

Home | Current Version | Previous Version | Text Only | Print | Product List | Glossary On
Versions: 1 2 3 4 5 6 7 8 9 10 11 12 13 14 15 16 17 18 19 20 21 22 23 24 25 26 27
000
ASUS41 KRLX 301510
RWRRLX
West Virginia Regional Weather Roundup
National Weather Service Charleston WV
1100 AM EDT SAT JUL 30 2016

Note: "fair" indicates few or no clouds below 12,000 feet with no
significant weather and/or obstructions to visibility.

WVZ003-301600-
Northern Panhandle of West Virginia

CITY           SKY/WX    TMP DP  RH WIND       PRES   REMARKS
WHEELING       CLOUDY    74  70  87 S6        29.98R
$$

WVZ009-301600-
Northwest West Virginia

CITY           SKY/WX    TMP DP  RH WIND       PRES   REMARKS
PARKERSBURG    CLOUDY    74  70  87 SW7       30.00S
$$

WVZ006-301600-
Western West Virginia

CITY           SKY/WX    TMP DP  RH WIND       PRES   REMARKS
HUNTINGTON     CLOUDY    77  71  82 W7        29.99R
$$

WVZ015-301600-
West Central West Virginia

CITY           SKY/WX    TMP DP  RH WIND       PRES   REMARKS
CHARLESTON     CLOUDY    76  69  79 SW5       30.00S
$$

WVZ022-031-301600-
North Central West Virginia

CITY           SKY/WX    TMP DP  RH WIND       PRES   REMARKS
CLARKSBURG     PTSUNNY   78  68  71 SW8G17    30.00R
MORGANTOWN     PTSUNNY   78  68  71 SW6       30.00R
$$

WVZ025-035-042-045-301600-
Southern West Virginia

CITY           SKY/WX    TMP DP  RH WIND       PRES   REMARKS
BECKLEY        PTSUNNY   73  68  84 SW9       30.10R
LOGAN          CLOUDY    73  70  88 CALM      30.04R
BLUEFIELD      PTSUNNY   73  67  81 W8        30.13R
LEWISBURG      CLOUDY    72  66  81 W6        30.10R
$$

WVZ047-301600-
Northern Mountains of West Virginia

CITY           SKY/WX    TMP DP  RH WIND       PRES   REMARKS
ELKINS           N/A     77  65  66 S6        30.04S
$$

WVZ052-301600-
Eastern Panhandle of West Virginia

CITY           SKY/WX    TMP DP  RH WIND       PRES   REMARKS
MARTINSBURG    PTSUNNY   77  72  84 CALM      29.98R
PETERSBURG       N/A     85  72  65 CALM      29.97S
$$




USA.gov is the U.S. government's official web portal to all federal, state and local government web resources and services.